Wind_Speed
37 37 37 36 36 35 35 35 35 34 34 34 34 33 33 32 32 33 32 32 32 31 32 32 31 31 31 32 31 32 32 32 31 31 32 32 32 32 33 33 33 33 34
38 38 38 37 37 36 35 36 37 36 36 36 35 34 35 34 33 34 33 33 33 33 33 32 32 32 32 32 32 32 32 32 32 32 33 33 33 33 33 33 34 34 34
39 39 38 38 37 37 37 37 37 37 37 37 36 36 36 36 35 35 35 34 34 33 33 33 33 33 33 32 32 32 33 33 33 33 33 33 33 33 34 34 35 35 35
39 39 39 39 38 38 38 37 37 37 37 37 37 37 37 37 36 36 35 35 35 34 34 34 34 34 34 34 34 34 34 34 34 34 34 34 34 34 35 35 35 35 35
39 40 40 39 39 38 38 37 37 37 37 37 37 37 37 36 36 35 35 35 35 35 35 35 34 34 35 35 35 35 35 35 35 35 34 34 35 35 34 35 34 34 34
39 40 40 39 39 39 38 38 37 37 37 38 38 38 38 37 36 36 35 36 36 36 36 36 36 36 36 36 36 36 36 36 36 36 35 35 35 35 34 34 34 34 34
39 40 40 39 39 39 39 38 38 38 37 37 38 39 40 39 38 36 36 36 36 35 35 36 36 37 37 37 38 37 37 36 36 36 35 35 35 35 35 35 35 35 35
39 39 39 39 39 39 39 39 38 38 38 38 38 39 40 40 40 39 38 36 36 36 36 37 38 38 38 38 38 37 37 36 36 36 36 36 36 35 36 36 36 36 36
39 39 39 39 39 39 39 39 38 38 39 39 39 39 40 41 40 39 38 37 38 38 38 38 39 39 39 39 38 38 37 37 37 37 37 36 36 36 37 36 36 36 36
40 39 38 39 39 39 39 39 39 39 39 39 39 39 39 40 41 40 39 38 38 38 38 40 40 39 39 39 38 38 38 37 38 38 37 36 36 36 36 36 37 37 37
38 38 38 39 39 39 38 38 38 39 39 38 38 38 39 38 39 41 40 39 38 37 38 38 39 38 38 38 38 38 37 37 37 37 36 36 36 37 37 37 37 37 38
35 36 36 37 37 37 37 37 37 38 37 37 37 37 36 36 37 38 38 38 38 37 37 37 38 38 38 38 38 38 37 37 37 37 36 36 36 37 37 37 37 37 38
34 34 34 35 36 36 37 37 38 38 37 36 36 36 35 35 36 37 37 37 37 36 36 37 38 38 38 38 38 37 37 37 37 37 36 36 37 37 37 38 38 38 38
34 33 33 35 37 37 37 37 37 36 36 36 36 36 35 35 36 37 37 37 37 37 37 37 36 37 37 37 37 36 36 36 36 36 36 36 36 37 37 38 38 38 38
34 34 34 35 36 37 37 37 37 36 35 35 36 36 36 35 36 37 37 37 38 38 38 37 37 37 36 36 37 37 36 36 36 35 35 35 36 36 37 37 38 38 38
34 35 34 35 36 37 37 37 38 37 36 35 35 35 35 34 36 37 37 38 39 38 37 37 37 37 36 36 36 36 36 36 36 35 35 36 37 37 37 36 37 37 37
34 33 34 34 35 36 36 35 36 36 35 35 35 35 35 36 36 36 35 36 37 37 37 37 37 36 35 36 36 35 36 36 35 36 36 36 36 36 36 36 36 36 36
33 33 33 33 34 35 35 35 34 35 35 35 35 35 35 35 35 36 36 36 36 37 37 37 37 36 36 35 35 35 36 36 36 36 36 36 36 36 35 35 35 35 35
32 32 32 32 34 35 34 34 34 35 35 35 35 35 35 35 35 36 35 35 35 36 37 38 37 37 36 35 35 35 36 35 35 36 35 36 36 36 36 35 35 36 36
32 32 32 33 33 34 34 34 34 35 35 36 36 36 35 36 36 35 35 35 35 36 36 37 36 36 36 35 34 35 35 35 35 34 34 35 35 35 35 36 36 36 36
30 30 30 31 32 32 32 33 33 34 35 36 37 37 36 35 35 35 35 36 36 37 36 34 35 35 35 35 35 35 33 33 34 33 34 34 34 35 35 35 36 35 35
28 28 29 29 30 31 31 31 32 33 34 35 35 35 35 35 34 35 35 36 36 35 34 34 34 35 36 37 36 34 33 33 32 32 33 33 34 34 34 34 34 34 34
28 29 28 29 29 30 30 31 32 32 32 32 33 33 33 33 33 34 34 35 34 32 32 32 33 34 35 35 35 34 33 32 31 32 32 33 33 33 33 33 32 32 32
28 28 28 29 30 30 30 30 30 30 30 30 31 32 33 32 33 34 34 34 32 31 32 33 33 34 33 34 35 34 33 31 31 31 31 31 32 31 31 30 30 31 31
29 28 29 29 30 30 30 29 29 29 29 29 29 30 31 32 32 33 32 32 31 30 31 32 33 32 31 32 32 32 31 30 30 29 29 29 29 29 28 28 29 29 29
29 29 28 29 30 31 29 29 29 29 29 28 29 29 30 30 31 31 30 31 31 31 30 30 29 29 30 30 31 30 30 30 29 28 28 27 27 27 27 27 28 28 27
Wind_Direction
258 259 261 262 263 263 263 263 262 263 263 264 265 267 268 267 267 268 269 271 272 273 274 274 276 277 277 278 280 281 283 285 286 287 289 290 290 290 292 293 293 293 293
259 260 261 262 262 263 263 262 262 262 263 263 263 265 266 264 264 266 267 270 271 272 273 275 275 276 277 278 279 281 283 284 285 288 289 290 290 291 292 293 293 294 294
259 260 261 261 264 265 265 263 263 263 264 263 262 262 265 264 263 265 267 268 269 272 273 275 275 275 276 277 279 281 283 283 284 286 287 289 291 292 292 293 294 294 294
258 259 262 263 264 265 265 264 263 263 263 262 261 261 263 263 261 263 265 266 269 272 273 274 275 276 276 277 279 280 282 283 284 285 286 288 289 291 292 294 295 294 295
258 260 262 263 263 263 264 264 263 263 263 262 260 260 261 262 260 261 263 266 269 272 273 274 276 276 276 277 278 280 282 283 284 284 285 287 289 291 292 293 294 294 294
260 260 261 261 262 262 263 263 263 262 262 262 261 260 259 259 258 260 263 265 268 270 271 273 275 277 277 277 279 281 282 283 283 284 285 286 287 289 290 291 294 294 294
259 259 260 260 261 261 261 262 262 262 261 262 262 261 258 257 256 259 262 264 266 268 271 273 276 278 277 277 278 280 280 282 283 284 285 286 287 288 289 290 292 293 293
259 259 260 259 261 262 261 261 263 262 263 262 262 262 259 258 255 258 261 263 265 267 270 273 275 276 276 276 277 278 280 281 282 283 284 285 286 287 288 289 290 291 292
258 258 259 258 259 261 261 261 262 262 263 264 264 263 260 257 255 257 259 263 265 266 270 272 273 276 277 277 277 277 278 280 281 282 284 285 285 287 288 289 290 291 291
259 259 258 257 258 260 260 260 261 262 263 265 265 263 262 260 257 257 259 262 265 266 269 271 272 276 278 276 276 276 277 278 278 281 282 283 284 286 288 289 290 291 292
259 258 257 256 257 258 259 258 260 263 264 265 264 263 261 260 260 258 258 261 264 266 270 271 272 275 278 277 277 276 276 277 278 280 282 283 284 285 287 288 290 291 292
260 259 256 256 256 258 258 258 260 263 264 264 262 261 261 261 262 260 260 261 263 266 269 270 271 275 278 277 276 275 276 277 278 280 281 283 284 285 286 287 288 290 291
258 257 257 257 257 257 258 259 261 262 261 262 261 260 260 263 262 261 261 263 266 267 269 271 272 274 277 277 277 275 275 276 277 278 280 282 284 284 285 285 287 289 291
257 258 259 259 258 256 258 260 262 262 260 260 260 259 259 262 263 263 263 266 267 267 269 272 274 275 276 275 275 276 275 276 276 277 279 282 284 285 285 285 286 288 289
257 258 260 258 257 257 259 259 260 260 259 260 259 259 260 263 263 264 265 266 267 269 269 271 275 276 276 274 273 275 275 275 276 277 278 281 283 285 286 285 286 287 289
258 261 260 259 258 257 259 261 260 259 258 259 259 259 261 262 262 265 265 266 268 269 270 272 274 276 277 274 272 273 274 275 275 275 278 280 282 284 285 286 287 288 289
259 259 259 258 256 256 258 259 258 258 258 258 257 259 260 262 264 265 266 267 268 269 271 273 275 276 276 277 273 273 275 276 275 276 278 280 282 284 285 286 287 289 290
259 260 257 257 257 256 257 257 257 257 257 256 257 257 259 262 264 266 267 267 269 271 273 275 275 274 274 277 276 274 275 276 276 277 279 280 283 283 284 285 287 289 290
259 258 257 257 256 256 256 258 258 258 257 256 257 259 261 264 265 267 267 269 272 274 274 274 275 275 273 274 276 277 276 275 277 278 279 280 281 283 284 285 287 288 289
258 259 258 257 257 257 257 258 259 259 257 256 258 260 263 265 266 268 268 270 273 275 275 275 275 275 274 274 275 278 278 277 277 279 279 280 280 281 283 285 287 289 290
259 258 256 257 258 259 259 259 260 260 258 258 259 260 264 267 268 268 269 271 272 273 274 275 275 276 275 275 278 279 279 278 278 279 280 280 280 280 281 284 287 288 290
260 257 257 258 259 260 260 261 262 260 260 261 261 263 265 267 269 269 269 271 273 273 273 274 276 277 277 278 278 277 278 279 278 280 280 280 281 282 283 285 287 289 290
260 258 256 256 258 259 260 262 261 262 263 263 263 263 265 268 270 270 271 271 272 272 273 275 277 278 278 278 277 277 278 279 280 281 280 280 281 283 286 288 288 289 290
261 259 257 257 259 259 260 262 264 263 263 264 265 265 265 266 270 271 272 272 272 272 272 273 276 278 278 277 277 278 277 278 281 281 281 280 280 281 284 288 288 288 289
262 260 260 259 260 261 263 264 265 264 265 265 267 267 267 268 270 272 272 272 271 272 274 275 277 278 278 278 277 276 277 278 280 281 281 281 281 282 284 287 289 289 290
265 262 263 264 263 263 264 265 265 266 266 267 267 268 269 269 271 271 271 271 271 271 275 277 278 278 278 277 275 275 278 279 279 279 280 281 282 284 285 287 288 290 291
Height
5788 5789 5790 5791 5791 5792 5793 5793 5793 5793 5794 5795 5796 5796 5797 5797 5797 5797 5797 5797 5797 5797 5796 5795 5794 5793 5793 5791 5790 5789 5787 5785 5783 5781 5779 5776 5774 5771 5769 5766 5764 5761 5759
5779 5780 5781 5782 5782 5783 5783 5783 5784 5785 5785 5786 5787 5788 5788 5789 5789 5789 5789 5789 5789 5789 5789 5788 5787 5786 5785 5784 5783 5781 5780 5778 5776 5774 5772 5769 5767 5764 5761 5759 5756 5753 5750
5769 5770 5771 5772 5773 5773 5773 5773 5774 5775 5776 5777 5778 5779 5780 5780 5781 5781 5781 5781 5781 5781 5781 5780 5779 5778 5778 5777 5775 5774 5772 5771 5769 5766 5764 5762 5759 5756 5754 5751 5748 5745 5742
5759 5760 5762 5762 5763 5763 5763 5763 5764 5764 5765 5767 5768 5770 5771 5771 5772 5773 5773 5773 5773 5773 5773 5772 5771 5771 5770 5769 5768 5766 5764 5763 5761 5759 5756 5754 5751 5749 5746 5743 5740 5736 5733
5749 5750 5752 5752 5753 5753 5753 5753 5754 5755 5756 5757 5758 5760 5761 5762 5763 5763 5764 5764 5764 5764 5764 5764 5763 5763 5762 5761 5760 5758 5756 5754 5753 5751 5748 5746 5743 5741 5738 5735 5732 5728 5725
5739 5740 5741 5742 5742 5743 5744 5744 5745 5745 5746 5747 5748 5749 5751 5752 5754 5754 5754 5755 5755 5756 5756 5755 5755 5754 5754 5753 5751 5750 5748 5746 5744 5742 5740 5737 5735 5733 5730 5727 5724 5720 5717
5729 5730 5731 5732 5733 5733 5734 5735 5735 5736 5737 5737 5739 5740 5740 5741 5743 5744 5745 5746 5746 5747 5747 5746 5746 5745 5745 5744 5742 5741 5739 5738 5736 5734 5731 5729 5727 5724 5722 5719 5716 5712 5709
5718 5719 5721 5722 5723 5723 5724 5725 5726 5726 5727 5727 5728 5729 5730 5732 5733 5735 5736 5737 5738 5738 5738 5738 5737 5736 5736 5735 5734 5732 5730 5729 5727 5725 5723 5720 5718 5716 5713 5710 5707 5704 5701
5708 5709 5710 5712 5713 5714 5715 5715 5716 5717 5718 5718 5718 5719 5720 5721 5724 5726 5727 5728 5728 5729 5729 5728 5728 5727 5726 5725 5724 5723 5721 5720 5718 5716 5714 5712 5709 5707 5704 5702 5698 5695 5692
5697 5698 5700 5701 5702 5704 5705 5706 5706 5707 5708 5708 5708 5709 5710 5711 5714 5716 5718 5718 5719 5719 5719 5719 5718 5718 5717 5715 5714 5713 5712 5710 5709 5707 5705 5702 5700 5698 5695 5692 5689 5686 5683
5687 5688 5689 5691 5692 5693 5695 5696 5697 5698 5698 5699 5699 5699 5700 5702 5704 5706 5708 5709 5709 5709 5709 5709 5709 5708 5707 5706 5705 5703 5702 5700 5699 5697 5695 5693 5691 5689 5686 5683 5680 5677 5674
5676 5677 5679 5681 5682 5684 5685 5686 5687 5688 5688 5689 5689 5690 5692 5693 5695 5696 5697 5699 5700 5700 5699 5699 5699 5698 5698 5696 5695 5694 5692 5691 5690 5688 5686 5684 5682 5679 5677 5674 5671 5668 5665
5667 5668 5670 5671 5673 5674 5675 5677 5678 5678 5679 5679 5680 5682 5683 5685 5686 5687 5687 5688 5690 5690 5690 5689 5689 5688 5688 5686 5685 5683 5682 5681 5680 5678 5677 5675 5672 5669 5667 5664 5662 5659 5656
5658 5660 5661 5662 5663 5665 5666 5667 5668 5668 5669 5670 5671 5673 5675 5676 5677 5678 5678 5679 5679 5680 5680 5680 5679 5678 5677 5676 5675 5673 5672 5671 5670 5669 5667 5665 5663 5660 5658 5655 5652 5650 5647
5649 5651 5652 5653 5654 5655 5656 5657 5658 5659 5660 5661 5663 5664 5666 5667 5668 5669 5669 5669 5670 5670 5671 5670 5669 5668 5667 5666 5665 5664 5662 5661 5660 5659 5657 5656 5654 5651 5648 5646 5643 5640 5638
5641 5642 5643 5644 5645 5646 5647 5648 5649 5649 5651 5652 5654 5655 5657 5658 5659 5659 5660 5660 5659 5660 5659 5660 5659 5658 5657 5656 5655 5654 5653 5652 5651 5650 5648 5646 5644 5642 5639 5636 5634 5631 5628
5632 5633 5634 5635 5636 5637 5638 5639 5640 5641 5642 5643 5645 5647 5648 5649 5649 5650 5651 5651 5651 5650 5649 5649 5648 5648 5646 5645 5645 5644 5643 5642 5641 5640 5639 5637 5635 5632 5630 5627 5625 5622 5619
5623 5624 5625 5626 5627 5629 5630 5631 5632 5633 5634 5635 5637 5638 5639 5640 5640 5641 5641 5642 5641 5640 5639 5639 5638 5637 5637 5636 5635 5634 5633 5632 5631 5630 5629 5627 5625 5623 5621 5618 5616 5613 5610
5615 5615 5615 5617 5618 5620 5621 5623 5624 5625 5626 5628 5629 5630 5631 5631 5632 5632 5632 5632 5632 5631 5630 5629 5628 5627 5627 5626 5625 5624 5623 5622 5621 5620 5619 5618 5616 5614 5612 5609 5607 5604 5602
5606 5606 5607 5609 5610 5612 5613 5614 5616 5617 5618 5619 5620 5621 5622 5622 5623 5623 5623 5623 5623 5622 5620 5619 5618 5618 5617 5617 5616 5615 5613 5612 5611 5610 5609 5608 5607 5605 5602 5600 5598 5595 5592
5598 5598 5599 5601 5602 5603 5605 5606 5607 5609 5610 5611 5612 5612 5613 5613 5614 5614 5614 5614 5613 5612 5611 5610 5610 5609 5608 5607 5607 5605 5604 5603 5601 5600 5600 5598 5597 5596 5593 5591 5588 5585 5583
5590 5591 5592 5593 5594 5595 5597 5598 5599 5600 5601 5602 5603 5604 5605 5605 5605 5605 5605 5604 5604 5603 5602 5601 5601 5600 5599 5598 5597 5596 5595 5594 5593 5593 5590 5589 5587 5586 5583 5581 5578 5576 5573
5582 5583 5584 5585 5587 5588 5589 5590 5591 5592 5593 5594 5595 5595 5596 5596 5596 5597 5596 5596 5595 5594 5593 5593 5592 5591 5590 5589 5588 5587 5586 5585 5584 5583 5581 5580 5578 5576 5574 5571 5569 5567 5565
5575 5575 5576 5577 5579 5580 5581 5583 5583 5584 5585 5586 5586 5587 5587 5588 5588 5588 5587 5586 5586 5585 5585 5584 5584 5582 5580 5579 5579 5578 5577 5576 5575 5573 5572 5571 5569 5568 5566 5563 5561 5559 5557
5567 5568 5569 5570 5571 5572 5573 5575 5575 5576 5577 5578 5578 5578 5579 5579 5579 5579 5578 5578 5577 5576 5576 5575 5574 5573 5571 5570 5570 5569 5569 5568 5567 5565 5563 5562 5561 5559 5558 5556 5553 5551 5549
5560 5561 5561 5562 5563 5564 5565 5567 5568 5568 5569 5570 5570 5570 5570 5570 5570 5569 5569 5569 5568 5568 5568 5567 5566 5564 5563 5562 5561 5561 5560 5560 5558 5558 5556 5555 5553 5551 5551 5549 5546 5544 5542